Regional Weather Roundup
Issued by NWS

Home | Current Version | Previous Version | Graphics & Text | Print | Product List | Glossary Off
Versions: 1 2 3 4 5 6 7 8 9 10 11 12 13 14 15 16 17 18 19 20 21 22 23 24 25 26 27 28 29 30 31 32 33 34 35 36 37 38 39 40 41 42 43 44 45 46 47 48 49 50

000
ASUS43 KTOP 240108
RWRKS

WEATHER ROUNDUP FOR KANSAS
NATIONAL WEATHER SERVICE GOODLAND KS
800 PM CDT SUN APR 23 2017

NOTE:  "FAIR" INDICATES FEW OR NO CLOUDS BELOW 12,000 FEET WITH NO
SIGNIFICANT WEATHER AND/OR OBSTRUCTIONS TO VISIBILITY.

KSZ001>006-013>018-027>032-041>047-240200-
NORTHWEST KANSAS

CITY           SKY/WX    TMP DP  RH WIND       PRES   REMARKS
GOODLAND       CLOUDY    63  39  41 S21       29.76F
HAYS           CLOUDY    62  37  39 S15       29.90F
HILL CITY      CLOUDY    64  32  30 S16G30    29.86F
RUSSELL        CLOUDY    61  37  41 S16       29.90F
$$

KSZ061>065-074>080-084>089-240200-
SOUTHWEST KANSAS

CITY           SKY/WX    TMP DP  RH WIND       PRES   REMARKS
DODGE CITY     CLOUDY    64  33  31 S17       29.91F
ELKHART          N/A     67  38  34 S23         N/A
GARDEN CITY    CLOUDY    64  33  31 S20G29    29.86F
PRATT          CLOUDY    58  34  40 S13       29.95F
$$

KSZ066>073-081>083-090>101-240200-
SOUTHEAST KANSAS

CITY           SKY/WX    TMP DP  RH WIND       PRES   REMARKS
CHANUTE        CLEAR     59  43  55 SE5       30.00F
COFFEYVILLE    CLEAR     63  43  48 SE5       30.02F
HUTCHINSON     CLOUDY    59  41  51 SE10      29.97F
MEDICINE LODGE   N/A     61  35  37 SE7       29.96F
PARSONS        CLEAR     60  44  55 CALM      30.02F
WICHITA INTL   PTCLDY    59  41  51 MISG      29.98F
WICHITA JABRA  CLEAR     58  37  45 S8        29.98F
WICHITA MCCONL CLOUDY    61  37  42 S7        29.98F
WINFIELD       CLEAR     58  45  62 S6        30.01F
$$

KSZ007>012-019>026-033>040-048>060-102>105-240200-
NORTHEAST KANSAS

CITY           SKY/WX    TMP DP  RH WIND       PRES   REMARKS
CONCORDIA      CLOUDY    60  39  45 S13       29.93F
EMPORIA        PTCLDY    59  42  53 S7        29.99F
LAWRENCE       CLEAR     63  36  36 SE8       29.99F
MANHATTAN      CLOUDY    64  36  35 S7        29.96F
MARYSVILLE     CLOUDY    61  36  39 S6        29.95S
OLATHE IND     CLEAR     58  37  45 S5        30.00F
OLATHE EXE     CLOUDY    61  37  41 S3        30.00F
SALINA         CLOUDY    62  39  42 S12       29.95F
TOPEKA BILLARD CLOUDY    65  36  34 S5        29.98F
TOPEKA FORBES  PTCLDY    61  39  44 S6        29.98F
$$




USA.gov is the U.S. government's official web portal to all federal, state and local government web resources and services.